Regional Weather Roundup
Issued by NWS

Home | Current Version | Previous Version | Graphics & Text | Print | Product List | Glossary On
Versions: 1 2 3 4 5 6 7 8 9 10 11 12 13 14 15 16 17 18 19 20 21 22 23 24 25 26 27 28 29 30 31 32 33 34 35 36 37 38 39 40 41 42 43 44 45 46 47 48 49 50
000
ASUS43 KBIS 290701
RWRND

NORTH DAKOTA REGIONAL WEATHER ROUNDUP
NATIONAL WEATHER SERVICE BISMARCK ND
100 AM CST THU JAN 29 2015

NOTE: "FAIR" INDICATES FEW OR NO CLOUDS BELOW 12,000 FEET WITH NO
SIGNIFICANT WEATHER AND/OR OBSTRUCTIONS TO VISIBILITY.


NDZ001>003-009>011-017-290800-
NORTHWEST NORTH DAKOTA

CITY           SKY/WX    TMP DP  RH WIND       PRES   REMARKS
WILLISTON      CLOUDY    31  25  78 NW12      30.35R
MINOT          CLOUDY    26  20  77 NW23G31   30.28R WCI  11
MINOT AFB      CLOUDY    26  26  99 NW18      30.28R WCI  13
$$

NDZ018>021-031>035-040>046-290800-
SOUTHWEST NORTH DAKOTA

CITY           SKY/WX    TMP DP  RH WIND       PRES   REMARKS
BISMARCK       CLOUDY    32  27  81 NW14      30.27R
DICKINSON      CLOUDY    33  24  69 NW18G26   30.27R
GARRISON         N/A     30  26  85 N17G25    30.27R WCI  18
HETTINGER ARPT CLOUDY    33  25  72 NW21G29   30.30R
$$

NDZ004>008-012>016-024-026-027-054-290800-
NORTHEAST NORTH DAKOTA

CITY           SKY/WX    TMP DP  RH WIND       PRES   REMARKS
GRAND FORKS    CLOUDY    22  18  85 N18       30.15R WCI   7
GRND FRKS AFB  CLOUDY    23  19  84 N14       30.17R WCI  10
DEVILS LAKE    CLOUDY    23  18  80 N16G23    30.18R WCI  10
$$

NDZ022-023-025-028>030-036>039-047>053-290800-
SOUTHEAST NORTH DAKOTA

CITY           SKY/WX    TMP DP  RH WIND       PRES   REMARKS
FARGO          CLOUDY    28  23  81 NW28G33   30.11R WCI  13
JAMESTOWN      CLOUDY    27  22  81 N21G30    30.17R WCI  13
$$




USA.gov is the U.S. government's official web portal to all federal, state and local government web resources and services.